Waarnemingen

Advertentie
Mijn weer
Aberdeen/Dyce, Groot Brittannië (3091): temperatuur & dauwpunt: 19.02.2018 09:00:00 - 25.02.2018 09:00:00 (GMT)Aberdeen/Dyce, Groot Brittannië (3091): temperatuur -20cm & temperatuur -100cm: 19.02.2018 09:00:00 - 25.02.2018 09:00:00 (GMT)Aberdeen/Dyce, Groot Brittannië (3091): windsnelheid & windstoten: 19.02.2018 09:00:00 - 25.02.2018 09:00:00 (GMT)Aberdeen/Dyce, Groot Brittannië (3091): windrichting: 19.02.2018 09:00:00 - 25.02.2018 09:00:00 (GMT)Aberdeen/Dyce, Groot Brittannië (3091): luchtdruk: 19.02.2018 09:00:00 - 25.02.2018 09:00:00 (GMT)Aberdeen/Dyce, Groot Brittannië (3091): zicht: 19.02.2018 09:00:00 - 25.02.2018 09:00:00 (GMT)Aberdeen/Dyce, Groot Brittannië (3091): Zonneschijnduur: 19.02.2018 09:00:00 - 25.02.2018 09:00:00 (GMT)Aberdeen/Dyce, Groot Brittannië (3091): neerslag: 19.02.2018 09:00:00 - 25.02.2018 09:00:00 (GMT)
Datum & Tijd tt [°C] td [°C] tt -20cm [°C] tt -100cm [°C] ff [km/u] ff [kn] fx [km/u] fx [kn] dd ppp [hPa] vv [km] sd [min] rr [mm]
25.02.2018 09:00:00 3,9 -0,9 3,4 4,5 16 9 - - Z 1032,4 10 0 0,0
25.02.2018 08:00:00 3,4 0,7 - - 13 7 - - Z 1032,1 10 0 0,0
25.02.2018 07:00:00 3,3 -1,5 - - 15 8 - - Z 1031,8 10 0 0,0
25.02.2018 06:00:00 3,7 -1,2 - - 18 10 - - Z 1031,5 10 0 0,0
25.02.2018 05:00:00 3,6 -1,0 - - 18 10 - - Z 1031,4 10 0 0,0
25.02.2018 04:00:00 3,6 -1,5 - - 24 13 - - Z 1031,2 10 0 0,0
25.02.2018 03:00:00 3,5 -1,0 - - 16 9 - - Z 1031,5 10 0 0,0
25.02.2018 02:00:00 3,7 -0,5 - - 22 12 - - Z 1031,5 10 0 0,0
25.02.2018 01:00:00 3,7 -0,9 - - 18 10 - - ZZO 1031,4 10 0 0,0
25.02.2018 00:00:00 3,8 -0,3 - - 21 11 - - ZZO 1031,1 10 - 0,0
24.02.2018 23:00:00 3,7 -0,3 - - 21 11 - - ZZO 1031,1 10 0 0,0
24.02.2018 22:00:00 3,6 -0,2 - - 21 11 - - ZZO 1030,6 10 0 0,0
24.02.2018 21:00:00 3,3 0,0 - - 24 13 - - ZZO 1030,2 10 0 0,0
24.02.2018 20:00:00 3,5 0,0 - - 28 15 - - ZZO 1029,9 10 0 0,0
24.02.2018 19:00:00 3,8 0,2 - - 26 14 - - ZZO 1029,6 10 0 0,0
24.02.2018 18:00:00 4,0 0,1 - - 26 14 - - ZZO 1028,8 10 0 0,0
24.02.2018 17:00:00 3,9 -0,3 - - 29 16 46 25 ZZO 1028,3 10 12 0,0
24.02.2018 16:00:00 4,4 -1,0 - - 34 18 54 29 ZZO 1027,8 10 18 0,0
24.02.2018 15:00:00 4,6 -0,9 - - 34 18 55 30 ZZO 1027,7 10 24 0,0
24.02.2018 14:00:00 4,8 -0,9 - - 37 20 55 30 ZZO 1027,4 10 24 0,0
24.02.2018 13:00:00 4,8 -0,8 - - 37 20 55 30 ZZO 1027,4 10 30 0,0
24.02.2018 12:00:00 5,2 -0,2 - - 39 21 54 29 ZZO 1027,3 10 24 0,0
24.02.2018 11:00:00 4,8 -0,5 - - 39 21 54 29 ZZO 1026,9 10 18 0,0
24.02.2018 10:00:00 4,4 -0,4 - - 37 20 52 28 ZZO 1026,7 10 30 0,0
24.02.2018 09:00:00 3,9 -0,6 3,2 4,5 37 20 46 25 ZZO 1026,2 10 6 0,0
24.02.2018 08:00:00 3,6 -0,3 - - 28 15 - - ZZO 1025,8 10 0 0,0
24.02.2018 07:00:00 3,5 -0,9 - - 35 19 48 26 ZZO 1025,1 10 0 0,0
24.02.2018 06:00:00 3,6 -0,5 - - 29 16 - - ZZO 1024,5 10 0 0,0
24.02.2018 05:00:00 3,5 -0,9 - - 28 15 - - ZZO 1024,1 10 0 0,0
24.02.2018 04:00:00 3,3 -1,2 - - 34 18 50 27 ZZO 1023,5 10 0 0,0
24.02.2018 03:00:00 3,3 -1,5 - - 35 19 50 27 Z 1023,3 10 0 0,0
24.02.2018 02:00:00 3,6 -1,7 - - 31 17 48 26 ZZO 1023,3 10 0 0,0
24.02.2018 01:00:00 3,6 -1,5 - - 35 19 48 26 ZZO 1023,3 10 0 0,0
24.02.2018 00:00:00 3,7 -1,2 - - 34 18 52 28 ZZO 1023,2 10 - 0,0
23.02.2018 23:00:00 4,0 -0,6 - - 31 17 48 26 ZZO 1022,9 10 0 0,0
23.02.2018 22:00:00 4,0 0,0 - - 35 19 50 27 ZZO 1022,7 10 0 0,0
23.02.2018 21:00:00 3,7 0,6 - - 34 18 48 26 ZZO 1022,6 9 0 0,0
23.02.2018 20:00:00 3,8 1,0 - - 24 13 - - ZZO 1022,6 10 0 0,0
23.02.2018 19:00:00 3,9 0,9 - - 21 11 - - ZZO 1022,6 10 0 0,0
23.02.2018 18:00:00 3,8 -0,1 - - 29 16 - - ZZO 1022,5 10 0 0,0
23.02.2018 17:00:00 3,6 -0,8 - - 31 17 - - Z 1022,3 10 0 0,0
23.02.2018 16:00:00 4,0 -0,8 - - 34 18 50 27 Z 1022,2 10 6 0,0
23.02.2018 15:00:00 4,1 -0,7 - - 28 15 48 26 Z 1022,2 10 54 0,0
23.02.2018 14:00:00 4,4 -1,8 - - 35 19 48 26 Z 1022,2 10 42 0,0
23.02.2018 13:00:00 4,0 -1,3 - - 31 17 - - Z 1022,3 10 60 0,0
23.02.2018 12:00:00 4,5 -2,4 - - 29 16 - - Z 1022,5 10 36 0,0
23.02.2018 11:00:00 3,4 -1,5 - - 22 12 - - Z 1022,8 10 60 0,0
23.02.2018 10:00:00 2,9 -0,8 - - 21 11 - - Z 1022,7 9 24 0,0
23.02.2018 09:00:00 1,5 -1,9 3,4 4,5 16 9 - - Z 1022,7 8 0 0,0
23.02.2018 08:00:00 -0,2 -2,3 - - 15 8 - - Z 1022,6 6 0 0,0
23.02.2018 07:00:00 0,5 -1,4 - - 16 9 - - Z 1022,3 7 0 0,0
23.02.2018 06:00:00 0,6 -1,3 - - 18 10 - - Z 1022,2 7 0 0,0
23.02.2018 05:00:00 0,7 -1,5 - - 13 7 - - Z 1022,3 8 0 0,0
23.02.2018 04:00:00 0,7 -1,1 - - 13 7 - - ZZO 1022,2 7 0 0,0
23.02.2018 03:00:00 1,3 -0,6 - - 13 7 - - Z 1022,4 9 0 0,0
23.02.2018 02:00:00 1,7 -0,5 - - 11 6 - - Z 1022,4 10 0 0,0
23.02.2018 01:00:00 2,1 -0,4 - - 9 5 - - Z 1022,5 10 0 0,0
23.02.2018 00:00:00 1,3 -1,4 - - 4 2 - - - 1022,6 10 - 0,0
22.02.2018 23:00:00 1,5 -1,5 - - 4 2 - - Z 1022,7 10 0 0,0
22.02.2018 22:00:00 2,3 -0,8 - - 11 6 - - Z 1022,6 10 0 0,0
22.02.2018 21:00:00 2,1 -0,1 - - 13 7 - - Z 1022,8 10 0 0,0
22.02.2018 20:00:00 2,4 0,3 - - 15 8 - - Z 1023,1 10 0 0,0
22.02.2018 19:00:00 2,8 0,7 - - 13 7 - - Z 1023,0 10 0 0,0
22.02.2018 18:00:00 2,8 0,6 - - 15 8 - - Z 1022,9 10 0 0,0
22.02.2018 17:00:00 3,8 0,7 - - 21 11 - - Z 1022,8 10 36 0,0
22.02.2018 16:00:00 5,2 0,9 - - 22 12 - - Z 1022,8 10 36 0,0
22.02.2018 15:00:00 6,1 0,3 - - 26 14 46 25 Z 1022,7 10 54 0,0
22.02.2018 14:00:00 6,5 1,3 - - 29 16 - - Z 1023,2 10 60 0,0
22.02.2018 13:00:00 5,9 1,0 - - 28 15 - - Z 1023,8 10 54 0,0
22.02.2018 12:00:00 6,2 2,0 - - 26 14 - - Z 1024,0 10 54 0,0
22.02.2018 11:00:00 6,0 2,9 - - 21 11 - - Z 1024,3 10 54 0,0
22.02.2018 10:00:00 4,4 2,4 - - 21 11 - - Z 1024,7 10 48 0,2
22.02.2018 09:00:00 2,8 1,4 3,5 4,4 15 8 - - Z 1025,1 10 0 0,0
22.02.2018 08:00:00 2,6 2,2 - - 11 6 - - Z 1025,3 10 0 0,0
22.02.2018 07:00:00 0,8 0,5 - - 2 1 - - - 1025,6 10 0 0,0
22.02.2018 06:00:00 1,1 0,9 - - 8 4 - - ZZO 1025,7 10 0 0,0
22.02.2018 05:00:00 0,2 0,0 - - 0 0 - - N 1025,9 10 0 0,0
22.02.2018 04:00:00 -0,1 -0,3 - - 2 1 - - - 1026,2 10 0 0,0
22.02.2018 03:00:00 -0,1 -0,3 - - 4 2 - - - 1026,5 10 0 0,0
22.02.2018 02:00:00 -0,6 -1,2 - - 4 2 - - - 1026,9 10 0 0,0
22.02.2018 01:00:00 1,5 0,9 - - 4 2 - - - 1027,3 9 0 0,0
22.02.2018 00:00:00 1,5 0,6 - - 4 2 - - ZZO 1027,8 10 - 0,0
21.02.2018 23:00:00 1,9 1,7 - - 15 8 - - Z 1028,0 7 0 0,0
21.02.2018 22:00:00 -0,4 -1,6 - - 2 1 - - - 1028,0 10 0 0,0
21.02.2018 21:00:00 0,8 -0,3 - - 5 3 - - Z 1028,1 10 0 0,0
21.02.2018 20:00:00 2,0 0,7 - - 9 5 - - Z 1028,2 10 0 0,0
21.02.2018 19:00:00 2,7 1,1 - - 5 3 - - ZZO 1028,2 10 0 0,0
21.02.2018 18:00:00 3,0 1,0 - - 11 6 - - Z 1028,0 10 0 0,0
21.02.2018 17:00:00 4,6 1,6 - - 15 8 - - ZZO 1028,0 10 48 0,0
21.02.2018 16:00:00 6,6 1,5 - - 8 4 - - ZO 1027,9 10 24 0,0
21.02.2018 15:00:00 7,2 1,3 - - 9 5 - - Z 1028,1 10 48 0,0
21.02.2018 14:00:00 7,8 1,0 - - 8 4 - - Z 1028,5 10 60 0,0
21.02.2018 13:00:00 8,1 1,3 - - 5 3 - - - 1029,0 10 60 0,0
21.02.2018 12:00:00 6,6 1,9 - - 4 2 - - - 1029,5 10 60 0,0
21.02.2018 11:00:00 4,6 1,7 - - 8 4 - - N 1029,8 10 60 0,0
21.02.2018 10:00:00 2,5 0,8 - - 4 2 - - - 1030,0 10 60 0,0
21.02.2018 09:00:00 -0,3 -1,0 3,7 4,4 5 3 - - N 1030,1 10 54 0,0
21.02.2018 08:00:00 -1,5 -2,0 - - 4 2 - - - 1030,0 10 0 0,0
21.02.2018 07:00:00 -1,5 -2,0 - - 4 2 - - - 1029,9 10 0 0,0
21.02.2018 06:00:00 -1,3 -1,8 - - 5 3 - - - 1029,8 10 0 0,0
21.02.2018 05:00:00 -1,3 -2,1 - - 5 3 - - - 1029,8 10 0 0,0
21.02.2018 04:00:00 -0,1 -2,0 - - 5 3 - - - 1029,9 10 0 0,0
21.02.2018 03:00:00 3,2 0,4 - - 18 10 - - WNW 1029,9 10 0 0,0
21.02.2018 02:00:00 2,9 0,3 - - 11 6 - - WNW 1030,2 10 0 0,0
21.02.2018 01:00:00 3,0 0,6 - - 9 5 - - WNW 1030,1 10 0 0,0
21.02.2018 00:00:00 3,4 0,9 - - 9 5 - - WNW 1029,8 10 - 0,0
20.02.2018 23:00:00 3,9 1,3 - - 15 8 - - WNW 1029,5 10 0 0,0
20.02.2018 22:00:00 4,1 1,2 - - 13 7 - - WNW 1029,0 10 0 0,0
20.02.2018 21:00:00 4,5 1,0 - - 13 7 - - NW 1028,8 10 0 0,0
20.02.2018 20:00:00 4,4 1,4 - - 5 3 - - - 1028,4 10 0 0,0
20.02.2018 19:00:00 5,6 2,0 - - 22 12 - - NW 1027,9 10 0 0,0
20.02.2018 18:00:00 6,2 2,6 - - 21 11 - - NW 1027,4 10 0 0,0
20.02.2018 17:00:00 7,0 2,6 - - 21 11 - - NNW 1026,4 10 30 0,0
20.02.2018 16:00:00 7,8 2,6 - - 24 13 - - NNW 1025,9 10 60 0,0
20.02.2018 15:00:00 8,3 2,8 - - 29 16 - - NW 1025,4 10 42 0,0
20.02.2018 14:00:00 8,1 3,1 - - 31 17 46 25 NNW 1025,1 10 48 0,0
20.02.2018 13:00:00 8,2 3,4 - - 34 18 46 25 NW 1024,5 10 60 0,0
20.02.2018 12:00:00 7,8 3,6 - - 29 16 - - NW 1023,9 10 60 0,0
20.02.2018 11:00:00 7,2 3,9 - - 29 16 - - NW 1023,2 10 60 0,0
20.02.2018 10:00:00 6,5 3,9 - - 28 15 - - NW 1022,7 10 60 0,0
20.02.2018 09:00:00 5,9 3,6 3,7 4,2 26 14 - - NW 1021,8 10 48 0,0
20.02.2018 08:00:00 4,8 3,0 - - 22 12 - - WNW 1020,9 10 0 0,0
20.02.2018 07:00:00 4,9 3,4 - - 18 10 - - WNW 1020,2 10 0 0,0
20.02.2018 06:00:00 4,5 3,7 - - 13 7 - - NW 1019,6 10 0 0,2
20.02.2018 05:00:00 4,7 3,3 - - 16 9 - - NW 1019,1 10 0 0,2
20.02.2018 04:00:00 4,6 3,5 - - 16 9 - - NNW 1018,6 10 0 0,8
20.02.2018 03:00:00 4,9 3,9 - - 21 11 - - NW 1018,3 8 0 1,2
20.02.2018 02:00:00 5,4 4,1 - - 31 17 - - NW 1017,6 5 0 0,6
20.02.2018 01:00:00 5,9 5,7 - - 18 10 - - NNW 1017,0 2,5 0 0,8
20.02.2018 00:00:00 5,6 5,4 - - 2 1 - - - 1016,7 4,3 - 0,2
19.02.2018 23:00:00 5,7 5,5 - - 9 5 - - ZO 1016,2 8 0 0,0
19.02.2018 22:00:00 5,8 5,5 - - 8 4 - - ZO 1016,2 9 0 0,0
19.02.2018 21:00:00 6,2 5,8 - - 5 3 - - ZO 1016,5 9 0 0,0
19.02.2018 20:00:00 6,1 5,8 - - 8 4 - - ZZO 1016,9 10 0 0,0
19.02.2018 19:00:00 6,0 5,7 - - 8 4 - - ZZO 1016,7 10 0 0,0
19.02.2018 18:00:00 6,2 5,9 - - 9 5 - - ZZO 1016,5 10 0 0,0
19.02.2018 17:00:00 6,3 6,2 - - 8 4 - - ZZO 1016,6 5 0 0,0
19.02.2018 16:00:00 6,5 6,3 - - 8 4 - - OZO 1016,4 2,5 0 0,2
19.02.2018 15:00:00 6,3 6,1 - - 5 3 - - OZO 1016,5 2,1 0 0,4
19.02.2018 14:00:00 6,3 6,0 - - 8 4 - - OZO 1016,2 1,7 0 0,2
19.02.2018 13:00:00 6,5 6,1 - - 9 5 - - ZO 1016,0 6 0 0,0
19.02.2018 12:00:00 6,2 5,8 - - 5 3 - - OZO 1016,0 3,7 0 0,2
19.02.2018 11:00:00 5,6 5,5 - - 2 1 - - ZZO 1015,7 2,6 0 0,4
19.02.2018 10:00:00 5,1 4,9 - - 4 2 - - NO 1015,5 2,4 0 0,0
19.02.2018 09:00:00 4,4 4,2 3,2 4,2 4 2 - - N 1015,0 2,3 0 0,2

tt = temperatuur
td = dauwpunt
tt -20cm = temperatuur -20cm
tt -100cm = temperatuur -100cm
ff = windsnelheid
fx = windstoten
dd = windrichting
ppp = luchtdruk
vv = zicht
sd = Zonneschijnduur
rr = neerslag

Weerstations in de omgeving